EHI
0 0 0 0 0 0 0 0 0 0 0 0 0 0 0 0 0 0 0 0 0 0 0 0 0 0 0 0 0 0 0 0 0 0 0 0 0 0 0 0 0 0 0
1 0 0 0 0 0 0 0 0 0 0 0 0 0 0 0 0 0 0 0 0 0 0 0 0 0 0 0 0 0 0 0 0 0 0 0 0 0 0 0 0 0 0
2 1 1 0 0 0 0 0 0 0 0 0 0 0 0 0 0 0 0 0 0 0 0 0 0 1 1 1 0 0 0 0 0 0 0 0 0 0 0 0 0 0 0
3 3 2 1 0 0 0 0 0 0 0 0 0 0 0 0 0 0 0 0 0 0 0 1 1 2 2 2 1 0 0 0 0 0 0 0 0 0 0 0 0 0 0
3 3 2 2 1 0 1 1 1 0 0 0 0 0 0 0 0 0 0 0 0 0 0 1 2 2 3 3 2 1 0 0 0 0 0 0 0 0 0 0 0 0 0
3 2 2 2 2 1 2 2 2 0 0 0 0 0 0 0 0 0 1 1 0 0 0 1 1 1 2 3 2 1 0 0 0 0 0 0 0 0 0 0 0 0 0
3 3 2 2 3 3 2 2 1 0 0 0 0 0 0 0 0 0 1 1 0 0 0 0 0 1 1 1 1 1 1 0 0 0 1 0 0 0 0 0 0 0 0
3 4 3 3 5 4 3 2 2 1 1 1 1 1 0 0 0 0 1 1 1 1 1 1 1 1 1 0 0 1 2 1 0 0 0 0 0 0 0 0 0 0 0
2 3 3 4 4 4 3 3 3 3 3 4 4 2 1 0 0 0 0 0 1 2 2 2 2 2 1 1 1 2 3 2 0 0 0 0 0 0 0 0 0 0 0
2 3 4 4 3 2 2 3 4 4 4 4 5 4 3 1 0 0 0 1 2 3 2 1 2 2 2 1 2 2 2 1 0 0 0 0 0 0 0 0 0 0 0
3 3 5 6 5 2 1 2 3 3 4 5 5 6 5 4 2 1 0 1 1 1 1 1 1 2 2 2 2 1 1 0 0 0 0 0 0 0 0 0 0 0 0
4 5 5 6 7 5 2 2 2 4 5 5 5 6 6 5 4 3 1 0 1 1 1 1 2 3 2 2 2 1 0 0 0 0 0 0 0 0 0 0 0 0 0
5 6 5 6 7 6 4 2 3 4 4 3 4 6 6 6 6 4 2 1 1 3 3 2 3 4 4 4 4 2 0 0 0 0 0 0 0 0 0 0 0 0 0
5 5 4 3 4 4 3 3 3 3 3 2 2 4 6 7 7 5 3 2 1 2 3 3 4 5 6 5 4 2 1 0 0 0 0 0 0 0 0 0 0 0 0
3 2 1 1 2 2 2 4 4 4 4 3 3 4 5 8 9 8 6 4 3 2 3 5 5 5 5 4 2 2 2 1 0 0 0 0 0 0 0 0 0 0 0
2 1 0 1 3 4 4 5 5 4 4 5 4 3 4 6 10 10 7 6 5 3 4 6 6 3 2 1 1 2 2 1 0 0 0 0 0 0 0 0 0 0 0
1 0 0 1 3 6 6 4 3 2 2 3 2 2 2 4 6 7 5 5 4 4 5 5 4 2 1 0 1 1 1 0 0 0 0 0 0 0 0 0 0 0 0
1 0 0 1 3 6 7 5 3 2 1 1 0 0 0 2 4 4 3 1 1 3 5 5 3 2 1 1 1 2 1 1 0 0 0 0 0 0 0 0 0 0 0
3 1 1 3 4 5 7 8 6 5 4 2 2 1 1 3 4 4 3 1 1 3 5 5 3 2 1 1 1 2 2 2 1 0 0 0 0 0 0 0 0 0 0
4 4 4 4 4 5 7 8 8 7 6 4 4 3 2 3 3 3 3 2 2 3 5 5 3 1 1 0 1 2 2 1 1 0 0 0 0 0 0 0 0 0 0
5 6 6 4 3 4 5 5 6 6 5 4 4 3 2 1 1 1 1 2 2 3 5 5 3 1 1 1 1 1 1 0 0 0 0 0 0 0 0 0 0 0 0
5 6 6 5 4 4 3 2 2 4 4 3 2 1 1 0 0 0 0 1 1 1 3 3 2 1 2 2 2 1 0 0 1 1 1 0 0 0 0 0 0 0 0
6 6 6 6 6 5 3 1 0 1 2 2 2 1 0 0 0 0 0 0 0 0 1 1 1 1 2 3 3 1 1 1 2 2 1 1 0 0 0 0 0 0 0
8 8 8 8 8 6 2 0 0 0 1 2 2 1 0 0 0 0 0 0 0 0 0 0 0 1 2 2 2 2 2 2 2 2 2 1 1 0 0 0 0 0 0
11 10 10 9 8 5 1 0 0 1 2 2 1 0 0 0 0 0 0 0 0 0 0 0 0 0 1 1 1 3 3 3 2 1 1 1 1 0 0 0 0 0 0
12 11 9 8 6 4 1 0 1 2 2 1 0 0 0 0 0 0 0 0 0 0 0 0 0 0 0 0 1 2 3 3 2 1 0 0 1 0 0 0 0 0 0
Wind_Speed
4 4 3 2 3 4 4 3 3 3 3 4 3 3 2 2 2 3 6 8 7 7 7 8 8 7 7 7 7 7 7 7 7 6 6 6 6 6 6 6 6 5 5
4 4 4 3 2 3 2 2 3 3 3 3 3 3 3 3 3 2 4 8 8 7 7 8 8 8 8 8 8 7 7 7 7 6 6 5 5 6 6 6 6 6 5
4 3 3 4 3 2 3 3 3 3 3 3 3 3 2 2 3 2 3 4 7 9 8 8 8 8 9 8 8 8 7 7 7 7 6 6 6 6 6 6 6 6 6
5 4 4 4 3 3 3 3 3 3 2 2 2 2 2 2 3 4 4 4 3 5 9 9 8 8 9 9 9 9 9 8 7 7 7 7 7 7 7 6 7 7 7
6 6 4 3 4 3 4 4 3 3 3 2 3 3 3 3 3 4 4 4 3 3 4 9 10 8 8 9 9 10 10 10 10 9 9 8 8 8 8 8 7 7 7
7 6 5 5 5 4 4 3 2 2 2 3 3 2 3 3 4 3 5 4 4 5 5 5 7 8 10 8 8 10 11 11 10 10 10 10 9 9 9 9 8 8 8
7 6 5 5 5 4 4 5 4 5 4 3 3 3 4 5 4 4 4 3 4 5 4 4 4 4 6 11 9 8 9 10 10 10 10 9 9 9 9 9 9 9 8
7 7 7 6 6 5 6 6 5 4 4 4 4 3 4 5 5 5 4 5 4 4 5 6 5 4 4 4 7 10 9 9 10 10 9 9 9 9 9 9 9 9 9
7 7 7 7 6 6 6 7 6 7 5 4 4 4 3 2 2 4 4 4 4 3 4 3 5 4 4 3 4 8 8 7 8 8 8 9 9 8 9 9 9 9 8
8 8 8 7 7 6 5 7 7 6 6 5 4 5 5 4 3 2 3 3 3 3 3 3 3 3 3 3 3 3 6 5 6 6 6 6 7 7 7 7 7 6 6
8 8 8 7 7 6 6 7 6 7 6 6 5 5 5 4 6 4 2 2 2 2 2 2 1 1 1 1 1 4 6 4 3 3 3 3 4 5 5 5 5 4 3
6 8 8 6 7 6 6 7 6 8 6 7 6 5 5 4 5 4 4 3 2 2 2 1 1 1 1 1 3 8 7 5 4 3 3 3 4 4 5 4 4 3 4
5 7 7 6 6 6 6 6 6 7 7 7 6 6 5 5 4 4 4 3 2 2 2 1 0 0 1 2 4 8 7 6 6 5 5 6 6 7 7 7 7 7 7
5 5 6 6 6 6 6 5 6 6 6 6 7 6 5 5 5 5 4 4 4 2 2 2 1 1 2 2 5 5 6 8 8 7 7 8 8 9 10 10 10 10 9
4 5 5 6 6 6 6 6 5 5 5 6 6 6 6 4 4 4 4 4 4 4 2 3 2 2 2 3 4 4 6 10 10 9 9 10 11 11 12 11 11 11 11
4 4 4 5 6 6 6 6 5 5 5 5 4 4 4 4 4 4 4 4 3 3 2 1 2 2 3 4 7 6 8 13 12 11 11 12 12 12 12 12 11 11 11
3 4 4 4 5 5 5 5 4 4 5 4 4 5 5 4 3 3 3 3 3 3 3 2 2 3 4 4 5 6 6 6 9 13 13 13 12 12 11 11 11 11 10
3 3 3 3 4 5 4 5 5 4 4 4 4 3 3 3 3 3 3 3 3 3 4 4 4 4 4 5 5 5 6 6 8 13 14 13 13 12 12 11 11 10 9
3 3 3 4 4 4 4 4 3 3 3 2 2 2 2 2 2 2 3 3 3 3 3 5 5 4 3 5 6 6 7 5 7 10 12 12 12 12 11 11 10 9 8
2 2 2 3 3 3 3 3 3 3 2 2 1 1 1 1 1 2 2 3 3 3 4 5 5 5 4 5 4 5 6 5 5 5 6 8 10 11 11 10 10 9 7
2 2 2 2 2 2 2 2 3 3 3 3 2 2 2 3 4 2 1 2 3 4 4 5 5 5 5 4 4 4 5 5 4 3 3 4 5 4 6 7 8 7 6
2 2 2 2 1 1 3 3 2 3 3 3 3 4 4 5 7 9 9 8 5 3 4 4 5 5 5 4 4 4 4 4 4 2 2 3 2 3 3 4 7 6 5
3 3 3 3 3 4 6 5 4 3 4 3 4 4 3 5 5 6 9 10 10 10 6 4 6 5 6 5 5 5 4 3 3 3 2 3 2 2 3 6 7 5 4
3 3 4 4 4 6 7 6 6 5 5 5 5 5 5 5 5 5 8 8 8 7 6 5 5 5 5 4 4 5 6 6 5 3 1 1 2 1 2 4 7 5 3
4 4 4 4 5 6 6 6 5 6 6 6 6 5 5 6 6 7 9 9 9 8 11 12 10 9 9 7 3 4 5 4 4 4 1 1 1 1 1 2 5 7 5
4 4 5 5 5 6 6 5 3 5 6 6 6 6 8 7 7 6 8 9 9 7 8 9 9 8 8 7 5 2 2 3 3 4 2 1 1 0 1 1 0 2 3
Wind_Direction
160 149 143 155 164 139 154 157 145 132 142 146 150 146 138 123 125 134 128 150 164 169 171 170 173 174 175 170 168 168 168 167 166 165 166 168 168 166 165 166 166 165 166
161 164 164 169 166 161 140 158 143 160 173 146 152 151 172 154 139 172 150 154 171 179 184 184 185 184 187 185 183 182 184 183 179 180 181 178 180 179 177 180 182 181 182
173 187 172 181 172 162 162 184 171 178 183 171 163 168 181 180 157 187 185 170 168 178 189 193 194 195 194 196 195 193 195 195 191 192 194 194 193 192 193 194 194 194 193
193 207 197 187 175 190 188 179 202 188 183 189 183 193 182 178 181 195 200 199 192 174 177 188 198 202 204 205 204 202 201 201 202 204 205 205 204 204 204 205 206 205 206
202 211 211 184 196 200 204 212 183 212 196 201 201 193 202 196 186 202 203 201 195 211 182 168 189 203 212 213 211 210 208 206 209 211 213 214 215 214 214 215 216 214 213
208 218 210 196 211 203 210 217 200 222 230 225 238 195 213 208 208 202 218 201 199 207 208 189 187 194 206 217 217 214 212 211 211 213 216 219 219 219 219 220 220 221 220
212 221 230 196 215 214 220 214 213 208 221 218 230 218 213 218 211 206 222 225 208 209 209 206 220 209 189 198 211 216 213 211 210 212 215 217 219 217 218 222 224 226 227
219 215 224 223 214 216 220 224 224 238 227 215 241 244 224 201 207 208 203 210 218 207 209 209 211 214 241 193 174 196 209 213 214 215 215 217 219 218 221 225 227 228 229
222 229 222 229 227 228 217 221 222 228 236 224 237 257 267 251 195 182 207 211 214 214 221 217 215 201 212 216 180 181 192 205 216 219 220 220 220 223 226 226 228 228 226
227 226 226 225 228 234 228 227 220 227 235 237 220 241 269 309 283 212 197 189 198 215 228 232 215 195 206 205 182 147 169 192 210 220 223 220 213 214 218 222 223 224 222
227 228 225 222 223 231 232 239 231 231 230 239 238 228 230 232 250 262 245 197 192 199 195 209 220 186 182 196 180 137 140 155 180 196 205 202 199 201 196 201 211 213 214
219 220 223 222 222 226 227 231 233 229 234 241 250 245 234 236 243 245 248 234 204 177 157 152 193 175 170 150 120 105 117 120 120 121 120 125 126 128 128 128 123 114 102
220 216 220 220 222 224 228 227 225 235 230 232 238 247 250 250 253 253 252 250 236 195 160 142 75 164 141 126 106 109 110 109 108 105 102 104 105 106 105 102 99 97 90
232 220 220 220 223 225 228 226 231 229 230 232 239 245 251 252 255 253 250 250 244 220 167 142 87 49 66 87 86 110 106 102 99 98 97 98 97 96 95 92 88 86 83
228 219 221 223 226 227 231 230 232 234 233 234 238 233 240 245 246 254 257 253 252 245 207 154 131 73 87 86 87 99 96 95 95 94 94 94 94 94 94 93 91 88 84
227 219 218 223 224 223 225 227 225 225 230 236 246 249 246 252 246 246 249 254 255 244 225 127 107 98 90 99 88 93 93 95 88 91 91 92 92 92 92 93 93 90 87
215 216 217 221 222 221 220 222 227 227 227 231 237 235 237 252 250 246 237 234 225 209 188 155 119 105 101 101 99 102 104 101 93 88 90 89 89 89 89 89 88 85 83
207 207 208 217 225 223 217 216 221 224 223 225 228 226 234 231 231 247 238 226 214 192 180 169 148 134 119 117 111 108 104 100 98 92 91 91 89 89 87 85 82 80 77
203 205 204 212 222 225 215 211 212 208 211 210 210 214 227 222 227 226 224 218 210 186 165 160 148 132 122 122 118 107 96 92 98 104 99 95 93 92 88 86 85 80 77
198 204 205 207 215 212 207 196 184 178 173 164 163 195 225 213 217 213 206 195 176 161 153 150 144 141 134 132 135 125 113 99 92 98 99 105 104 101 96 92 90 85 79
180 173 172 174 190 192 182 171 171 165 150 134 115 97 78 79 66 56 89 148 158 161 155 153 150 145 141 147 144 136 126 120 99 98 115 117 119 111 110 105 92 79 71
137 130 129 130 132 105 88 104 149 144 137 127 115 99 96 92 89 82 77 72 78 133 155 152 146 145 140 138 133 139 139 141 129 121 124 106 102 99 97 86 82 80 69
123 117 109 105 98 84 87 96 101 121 115 114 112 108 98 95 102 104 94 87 75 71 78 115 131 138 141 147 150 150 143 126 108 128 144 109 100 96 101 94 97 84 74
124 112 101 96 97 90 89 97 103 107 103 103 105 110 110 104 99 110 106 95 83 72 75 89 107 113 121 135 149 142 135 128 118 110 145 109 116 106 98 111 128 125 113
118 110 102 101 99 94 86 94 103 107 101 93 88 89 100 104 96 108 113 110 104 96 82 85 87 93 92 87 93 140 151 148 126 109 72 76 112 123 136 140 145 164 174
118 109 96 92 97 99 89 91 114 119 112 105 93 87 79 84 91 103 121 121 117 113 113 112 110 115 113 109 104 104 139 144 125 114 90 347 91 344 178 136 138 178 191